Погода в Преображенке

Погода в Преображенке : погода сейчас, прогноз погоды и архив. Всё, что Вы хотите узнать о погоде в Преображенке!

Хотите узнать прогноз погоды в Преображенке? Тогда Вам сюда: Погода в Преображенке

Поиск расширенной информации на нашем сайте:

Другие новости

Новости СМИ2

Главная страница сайта

Новости сайта

02.10.2013

Напоминаем, что на нашем новом сайте вы можете получить высокодетализированные прогнозы погоды по пунктам России, СНГ и мира (включающие важные для авиации метеовеличины, такие как направление и скорость ветра, видимость, явления погоды, количество и форма облачности, нижняя и верхняя граница облачности), а также ознакомиться с разнообразными материалами по авиационной метеорологии и подборкой полезных ссылок на эту тему.

Сайт Метеоцентр.Азия посвящён разработке технологий оптимизации авиаметеорологического обслуживания, включая проектирование и перспективное создание нескольких автоматизированных авиаметеорологических систем:
- система выпуска высокодетальных прогностических карт явлений погоды для нижнего воздушного пространства по России и ближнему зарубежью;
- система верификации прогнозов TAF (выпускаемых синоптиками официальных АМСГ РФ и ближнего зарубежья) и AUTOTAF (выпускаемых сайтом Метеоцентр.Азия) - выявление ошибок, онлайн-сопоставление с фактической погодой METAR, автоматическое внесение коррективов в прогнозы при резком отклонении фактической погоды от прогноза, подсчёт оправдываемости прогнозов по элементам и в целом;
- система обработки, анализа и отображения авиаметеорологической информации для применения провайдерами метеорологической информации.


Погода в Преображенке - сегодня

Время (UTC), дата Ветер
(°,м/с) 
Видим.   Явления Облачность Т
(°С)
Тd
(°С)
f(%) Тe
(°С)
Pmin
(гПа)
dP
(гПа)
Po
(мм)
O2
(г/м3)
Тmin Tmax R s Состояние
почвы
03 20.06.17 110 (В) 20000 м    ясно 
+24.8 +11.6 44 +29  1012.9  -0.9  735  269           
06 20.06.17 360 (С) 20000 м    ясно 
+27 +9 32 +27  1009.5  -3.1  732  267           
09 20.06.17 230 (ЮЗ) 20000 м    ясно 
+30.3 +7.9 25 +30  1008.5  -0.5  732  264           
12 20.06.17 тихо ()   20000 м    ясно 
+29.2 +14.2 40 +37  1007.7  -0.8  731  263    +30.4       
15 20.06.17 тихо ()   н/о  местами туман поземный  3/0 верхняя 
[Ci fib]
+18.1 +12.8 71 +24  1009.1  0.1  731  274           
18 20.06.17 140 (ЮВ) н/о  местами туман поземный  3/0 верхняя 
[Ci fib]
+12.8 +10.9 88 +17  1010.1  0.3  732  279           
21 20.06.17 тихо ()   20000 м    8/0 верхняя 
[Cc]
+11.8 +10 89 +13  1010.6  0.3  732  281           
00 21.06.17 180 (Ю) 20000 м  дым  3/0 верхняя 
[Ci fib]
+18.7 +11.8 64 +24  1009.9  0.1  732  274  +10.1         
03 21.06.17 140 (ЮВ) 20000 м  дым  1/0 верхняя 
[Ci fib]
+27.7 +12.3 38 +33  1008.1  -0.7  731  265           
06 21.06.17 180 (Ю) 20000 м  дым  ясно 
+31.7 +11.6 29 +36  1006.2  -1.4  730  262           
09 21.06.17 270 (З) 20000 м  дым  ясно 
+33.2 +10.5 25 +36  1004.4  -1.5  729  260           
12 21.06.17 230 (ЮЗ) 20000 м  дым  ясно 
+31.2 +13.9 35 +39  1003.7  -0.9  728  261    +35.1       
15 21.06.17 тихо ()   н/о  дым  ясно 
+19.1 +16.1 83 +31  1005.2  0.1  729  271           
18 21.06.17 тихо ()   н/о  местами туман поземный  4/0 верхняя 
[Ci fib]
+14.2 +13.1 93 +20  1006.3  0.6  729  277           
21 21.06.17 180 (Ю) 20000 м  дым  9/0 верхняя 
[Ci fib]
+14.8 +12.6 87 +21  1006.7  0.4  729  276           
00 22.06.17 тихо ()   20000 м  дым  9/0 верхняя 
[Ci fib]
+20 +14.9 72 +29  1005.6  -0.4  729  271  +12.7         
03 22.06.17 140 (ЮВ) 20000 м  дым  9/0 верхняя 
[Ci fib]
+30.1 +14.3 38 +38  1004.3  -0.2  729  262           
06 22.06.17 230 (ЮЗ) 5{10}  20000 м  дым  9/1 600 м верхняя 
[Cu hum|Ci fib]
+35.1 +8.5 20 +35  1002.4  -1.5  728  258           
09 22.06.17 230 (ЮЗ) 20000 м  дым  9/0 верхняя 
[Cs]
+34 +9.4 22 +35  1001.1  -1.3  727  259           
12 22.06.17 180 (Ю) 4000 м  мгла{туман}  ?/?  
+28.2 +14.5 43 +37  1001.3  -0.3  727  262    +36.8       
15 22.06.17 160 (Ю) н/о  мгла{туман}  ?/?  
+21.6 +13.5 60 +29  1002.1  727  269           
18 22.06.17 тихо ()   н/о  мгла{туман}  ?/?  
+18.6 +13.5 72 +26  1003.8  -1.2  727  272           
21 22.06.17 тихо ()   4000 м  дымка{туман}  ?/?  
+16.2 +12.8 80 +22  1005  728  274           
03 23.06.17 360 (С) 20000 м  дым  8/1 600 м верхняя 
[Cu med, cong|Ci fib]
+28.7 +16.6 48 +41  1004.1  -0.2  729  262           
06 23.06.17 320 (СЗ) 20000 м  дым  8/8 600 м 
[Cu med, cong]
+30 +14 38 +38  1003.6  -0.4  728  262           
Время (UTC), дата Ветер
(°,м/с) 
Видим.   Явления Облачность Т
(°С)
Тd
(°С)
f(%) Тe
(°С)
Pmin
(гПа)
dP
(гПа)
Po
(мм)
O2
(г/м3)
Тmin Tmax R s Состояние
почвы

Для получения пояснительной информации подведите курсор к названию столбца.

ПОГОДА в Преображенке - архив

Всё, что Вы хотите узнать о погоде в Преображенке - удобно и подробно!

Выберите нужную дату (начиная с 1 января 2015* года) и нажмите кнопку "Найти".
Будут отображены архивные сводки погоды по пункту Преображенка, начиная с указанной даты.


Отображать данные в формате CSV (для использования в таблицах Excel)


Внимание! Наш архив погоды предназначен исключительно для личного некоммерческого использования в познавательных целях. Если Вам необходимы официальные справки о состоянии погоды (для производственных, юридических, коммерческих и т.п. целей), обращайтесь в органы Росгидромета.

*Примечание: данная дата относится к архиву по метеостанциям СССР (Россия, СНГ, Балтия).
Архив по метеостанциям Зарубежной Европы и Азии (кроме Китая) хранится 10 дней, по другим регионам земного шара (Китай, Африка, Америка, Австралия, Океания) - 1 день.

Преображенка - район местоположения метеостанции


Название, широта, долгота, высота метеостанции:
Преображенка 60.1°ш. 108°д. 292 м над ур. моря [Российская Федерация]

Дополнительная информация

В oтличие oт бoльшинства пoгoдных сайтoв мы публикуем пoдрoбную метеoинфoрмацию в детальнoм прoфессиoнальнoм фoрмате.

Характеристики температуры и влажнoсти вoздуха измеряются на высoте 2 м в тени вдали oт зданий и деревьев.
Скoрoсть ветра измеряется на высoте 10 м (на урoвне рoста челoвека скoрoсть ветра ниже в 1.5-2 раза). Если метеoстанция нахoдится в гoрoде или в лесу, тo скoрoсть ветра занижена на 2-4 м/с пo сравнению с oткрытым местoм. Скoрoсть ветра над акватoриями крупных рек и oзёр, а также на вершинах хoлмoв на 2-5 м/с выше, чем в oбычных услoвиях.
Атмoсфернoе давление в разных тoчках местнoсти мoжет значительнo oтличаться oт давления на метеoстанции, в зависимoсти oт услoвий рельефа (при пoдъёме на 10 м давление пoнижается примернo на 1 мм рт.ст.).